| time (UTC) | temp F | wind direction | speed MPH | gust MPH | rain 1hr in | rain 24hr in | rain mn in | humidity % | barometer mb |
| 20260506204503 | 59 | 232 | 1.0 | 3.0 | 0.02 | 0.14 | 0.14 | 90 | 1007.7 |
| 20260506203603 | 59 | 241 | 1.0 | 3.0 | 0.03 | 0.14 | 0.14 | 89 | 1007.7 |
| 20260506202703 | 59 | 246 | 1.0 | 2.0 | 0.04 | 0.14 | 0.14 | 90 | 1007.7 |
| 20260506201824 | 59 | 300 | 1.0 | 3.0 | 0.04 | 0.14 | 0.14 | 90 | 1007.7 |
| 20260506200903 | 59 | 276 | 1.0 | 4.0 | 0.04 | 0.13 | 0.13 | 90 | 1008.0 |
| 20260506200025 | 59 | 241 | 1.0 | 3.0 | 0.04 | 0.13 | 0.13 | 90 | 1008.0 |
| 20260506195405 | 58 | 229 | 1.0 | 3.0 | 0.04 | 0.13 | 0.13 | 90 | 1008.0 |
| 20260506194504 | 58 | 216 | 1.0 | 6.0 | 0.03 | 0.12 | 0.12 | 89 | 1008.0 |
| 20260506193604 | 58 | 148 | 0.0 | 2.0 | 0.02 | 0.11 | 0.11 | 89 | 1008.0 |
| 20260506192704 | 58 | 36 | 0.0 | 2.0 | 0.01 | 0.10 | 0.10 | 89 | 1008.0 |
| 20260506191805 | 59 | 217 | 1.0 | 2.0 | 0.01 | 0.10 | 0.10 | 88 | 1008.4 |
| 20260506190905 | 59 | 150 | 1.0 | 9.0 | 0.00 | 0.09 | 0.09 | 88 | 1008.4 |
| 20260506190006 | 59 | 177 | 1.0 | 2.0 | 0.01 | 0.09 | 0.09 | 87 | 1008.7 |
| 20260506185405 | 59 | 204 | 1.0 | 7.0 | 0.01 | 0.09 | 0.09 | 88 | 1008.7 |
| 20260506184504 | 59 | 247 | 1.0 | 2.0 | 0.01 | 0.09 | 0.09 | 87 | 1008.4 |
| 20260506183605 | 59 | 95 | 1.0 | 6.0 | 0.02 | 0.09 | 0.09 | 87 | 1008.7 |
| 20260506182705 | 60 | 157 | 1.0 | 6.0 | 0.03 | 0.09 | 0.09 | 87 | 1008.7 |
| 20260506181805 | 60 | 129 | 1.0 | 7.0 | 0.03 | 0.09 | 0.09 | 87 | 1009.1 |
| 20260506180905 | 60 | 111 | 2.0 | 7.0 | 0.05 | 0.09 | 0.09 | 88 | 1009.1 |
| 20260506180005 | 60 | 79 | 1.0 | 4.0 | 0.05 | 0.08 | 0.08 | 87 | 1008.7 |
| 20260506175404 | 60 | 131 | 1.0 | 11.0 | 0.06 | 0.08 | 0.08 | 85 | 1008.7 |
| 20260506174504 | 61 | 143 | 1.0 | 11.0 | 0.07 | 0.08 | 0.08 | 86 | 1008.7 |
| 20260506173604 | 61 | 123 | 1.0 | 6.0 | 0.07 | 0.07 | 0.07 | 85 | 1008.7 |
| 20260506172705 | 61 | 125 | 1.0 | 4.0 | 0.06 | 0.06 | 0.06 | 85 | 1008.7 |
| 20260506171804 | 61 | 69 | 0.0 | 3.0 | 0.06 | 0.06 | 0.06 | 83 | 1009.4 |
| 20260506170925 | 62 | 128 | 0.0 | 3.0 | 0.04 | 0.04 | 0.04 | 82 | 1009.8 |
| 20260506170025 | 62 | 229 | 0.0 | 2.0 | 0.03 | 0.03 | 0.03 | 78 | 1009.8 |
| 20260506165404 | 63 | 263 | 0.0 | 2.0 | 0.02 | 0.02 | 0.02 | 77 | 1010.1 |
| 20260506164505 | 64 | 174 | 1.0 | 9.0 | 0.01 | 0.01 | 0.01 | 75 | 1010.1 |
| 20260506163604 | 65 | 148 | 1.0 | 9.0 | 0.00 | 0.00 | 0.00 | 73 | 1010.1 |
| 20260506162704 | 65 | 75 | 1.0 | 4.0 | 0.00 | 0.00 | 0.00 | 72 | 1010.1 |
| 20260506161804 | 66 | 227 | 1.0 | 2.0 | 0.00 | 0.00 | 0.00 | 70 | 1009.8 |
| 20260506160904 | 66 | 154 | 1.0 | 4.0 | 0.00 | 0.00 | 0.00 | 69 | 1010.1 |
| 20260506160004 | 67 | 183 | 1.0 | 3.0 | 0.00 | 0.00 | 0.00 | 67 | 1010.1 |
| 20260506155405 | 67 | 233 | 1.0 | 3.0 | 0.00 | 0.00 | 0.00 | 67 | 1010.1 |
| 20260506154504 | 67 | 186 | 1.0 | 6.0 | 0.00 | 0.00 | 0.00 | 66 | 1010.5 |
| 20260506153604 | 66 | 235 | 1.0 | 4.0 | 0.00 | 0.00 | 0.00 | 68 | 1010.5 |
| 20260506152725 | 66 | 220 | 1.0 | 7.0 | 0.00 | 0.00 | 0.00 | 68 | 1010.5 |
| 20260506151804 | 66 | 200 | 1.0 | 8.0 | 0.00 | 0.00 | 0.00 | 67 | 1010.5 |
| 20260506150904 | 66 | 208 | 1.0 | 9.0 | 0.00 | 0.00 | 0.00 | 67 | 1010.5 |
| 20260506150004 | 66 | 184 | 1.0 | 9.0 | 0.00 | 0.00 | 0.00 | 68 | 1010.8 |
| 20260506145404 | 66 | 258 | 1.0 | 4.0 | 0.00 | 0.00 | 0.00 | 68 | 1010.5 |
| 20260506144504 | 66 | 218 | 1.0 | 6.0 | 0.00 | 0.00 | 0.00 | 68 | 1010.5 |
| 20260506143604 | 66 | 122 | 1.0 | 10.0 | 0.00 | 0.00 | 0.00 | 68 | 1010.5 |
| 20260506142704 | 65 | 167 | 1.0 | 3.0 | 0.00 | 0.00 | 0.00 | 71 | 1010.8 |
| 20260506141804 | 64 | 247 | 1.0 | 4.0 | 0.00 | 0.00 | 0.00 | 71 | 1010.8 |
| 20260506140904 | 64 | 262 | 1.0 | 8.0 | 0.00 | 0.00 | 0.00 | 71 | 1010.8 |
| 20260506140004 | 64 | 199 | 1.0 | 8.0 | 0.00 | 0.00 | 0.00 | 71 | 1010.5 |
| 20260506135404 | 64 | 226 | 1.0 | 3.0 | 0.00 | 0.00 | 0.00 | 73 | 1010.5 |
| 20260506134504 | 63 | 246 | 1.0 | 3.0 | 0.00 | 0.00 | 0.00 | 74 | 1010.5 |
| 20260506133604 | 62 | 241 | 1.0 | 4.0 | 0.00 | 0.00 | 0.00 | 75 | 1010.5 |
| 20260506132704 | 62 | 156 | 1.0 | 9.0 | 0.00 | 0.00 | 0.00 | 75 | 1010.5 |
| 20260506131825 | 62 | 89 | 1.0 | 7.0 | 0.00 | 0.00 | 0.00 | 77 | 1010.5 |
| 20260506130905 | 61 | 217 | 1.0 | 4.0 | 0.00 | 0.00 | 0.00 | 77 | 1010.5 |
| 20260506130005 | 61 | 236 | 1.0 | 7.0 | 0.00 | 0.00 | 0.00 | 78 | 1010.8 |
| 20260506125404 | 60 | 226 | 1.0 | 7.0 | 0.00 | 0.00 | 0.00 | 78 | 1010.5 |
| 20260506124504 | 60 | 163 | 1.0 | 4.0 | 0.00 | 0.00 | 0.00 | 78 | 1010.8 |
| 20260506123604 | 60 | 217 | 1.0 | 4.0 | 0.00 | 0.00 | 0.00 | 79 | 1010.5 |
| 20260506122704 | 60 | 130 | 1.0 | 3.0 | 0.00 | 0.00 | 0.00 | 78 | 1011.2 |
| 20260506121804 | 60 | 220 | 1.0 | 3.0 | 0.00 | 0.00 | 0.00 | 79 | 1011.2 |
| 20260506120904 | 60 | 216 | 0.0 | 3.0 | 0.00 | 0.00 | 0.00 | 79 | 1011.2 |
| 20260506120005 | 59 | 184 | 1.0 | 2.0 | 0.00 | 0.00 | 0.00 | 80 | 1011.2 |
| 20260506115404 | 59 | 257 | 0.0 | 2.0 | 0.00 | 0.00 | 0.00 | 80 | 1011.2 |
| 20260506114504 | 58 | 245 | 0.0 | 3.0 | 0.00 | 0.00 | 0.00 | 81 | 1011.2 |
| 20260506113604 | 58 | 172 | 1.0 | 3.0 | 0.00 | 0.00 | 0.00 | 82 | 1011.2 |
| 20260506112704 | 58 | 238 | 1.0 | 3.0 | 0.00 | 0.00 | 0.00 | 82 | 1011.2 |
| 20260506111804 | 58 | 244 | 1.0 | 3.0 | 0.00 | 0.00 | 0.00 | 82 | 1011.2 |
| 20260506110904 | 57 | 188 | 1.0 | 7.0 | 0.00 | 0.00 | 0.00 | 83 | 1011.2 |
| 20260506110004 | 57 | 230 | 0.0 | 3.0 | 0.00 | 0.00 | 0.00 | 83 | 1010.8 |
| 20260506105404 | 57 | 212 | 0.0 | 1.0 | 0.00 | 0.00 | 0.00 | 84 | 1011.2 |
| 20260506104504 | 56 | 190 | 0.0 | 2.0 | 0.00 | 0.00 | 0.00 | 85 | 1011.2 |
| 20260506103604 | 55 | 270 | 0.0 | 2.0 | 0.00 | 0.00 | 0.00 | 85 | 1011.5 |
| 20260506102725 | 55 | 274 | 0.0 | 1.0 | 0.00 | 0.00 | 0.00 | 85 | 1011.2 |
| 20260506101804 | 55 | 292 | 0.0 | 1.0 | 0.00 | 0.00 | 0.00 | 84 | 1011.2 |
| 20260506100904 | 55 | 300 | 0.0 | 2.0 | 0.00 | 0.00 | 0.00 | 84 | 1011.2 |
| 20260506100004 | 55 | 316 | 0.0 | 2.0 | 0.00 | 0.00 | 0.00 | 83 | 1010.8 |
| 20260506095425 | 55 | 7 | 0.0 | 2.0 | 0.00 | 0.00 | 0.00 | 83 | 1010.8 |
| 20260506094504 | 55 | 51 | 0.0 | 2.0 | 0.00 | 0.00 | 0.00 | 81 | 1010.8 |
| 20260506093625 | 55 | 244 | 0.0 | 1.0 | 0.00 | 0.00 | 0.00 | 79 | 1010.8 |
| 20260506092725 | 55 | 229 | 0.0 | 1.0 | 0.00 | 0.00 | 0.00 | 81 | 1010.8 |
| 20260506091804 | 55 | 186 | 0.0 | 1.0 | 0.00 | 0.00 | 0.00 | 82 | 1010.8 |
| 20260506090904 | 55 | 226 | 0.0 | 2.0 | 0.00 | 0.00 | 0.00 | 81 | 1010.8 |
| 20260506090025 | 56 | 224 | 0.0 | 2.0 | 0.00 | 0.00 | 0.00 | 80 | 1011.2 |
| 20260506085404 | 56 | 147 | 0.0 | 2.0 | 0.00 | 0.00 | 0.00 | 81 | 1011.2 |
| 20260506084504 | 56 | 153 | 0.0 | 2.0 | 0.00 | 0.00 | 0.00 | 79 | 1010.8 |
| 20260506083604 | 56 | 227 | 0.0 | 1.0 | 0.00 | 0.00 | 0.00 | 80 | 1010.8 |
| 20260506082704 | 56 | 261 | 0.0 | 1.0 | 0.00 | 0.00 | 0.00 | 79 | 1010.8 |
| 20260506081825 | 56 | 278 | 0.0 | 2.0 | 0.00 | 0.00 | 0.00 | 79 | 1010.8 |
| 20260506080904 | 56 | 272 | 0.0 | 1.0 | 0.00 | 0.00 | 0.00 | 78 | 1011.2 |
| 20260506072704 | 57 | 168 | 0.0 | 2.0 | 0.00 | 0.00 | 0.00 | 76 | 1011.2 |
| 20260506071804 | 57 | 252 | 0.0 | 3.0 | 0.00 | 0.00 | 0.00 | 75 | 1010.8 |
| 20260506070904 | 57 | 293 | 0.0 | 2.0 | 0.00 | 0.00 | 0.00 | 75 | 1010.8 |
| 20260506061804 | 59 | 266 | 0.0 | 1.0 | 0.00 | 0.00 | 0.00 | 70 | 1011.2 |
| 20260506060904 | 59 | 279 | 1.0 | 2.0 | 0.00 | 0.00 | 0.00 | 70 | 1011.2 |
| 20260506050904 | 61 | 234 | 0.0 | 3.0 | 0.00 | 0.00 | 0.00 | 66 | 1011.5 |
| 20260506044504 | 61 | 254 | 1.0 | 4.0 | 0.00 | 0.00 | 0.00 | 65 | 1011.5 |
| 20260506043604 | 61 | 270 | 1.0 | 2.0 | 0.00 | 0.00 | 0.00 | 66 | 1011.5 |
| 20260506042703 | 61 | 245 | 0.0 | 2.0 | 0.00 | 0.00 | 0.00 | 65 | 1011.5 |
| 20260506041804 | 61 | 279 | 0.0 | 2.0 | 0.00 | 0.00 | 0.00 | 65 | 1011.5 |
| 20260506040904 | 61 | 236 | 0.0 | 2.0 | 0.00 | 0.00 | 0.00 | 65 | 1011.5 |
| 20260506040004 | 62 | 242 | 1.0 | 3.0 | 0.00 | 0.00 | 0.00 | 64 | 1011.5 |
| 20260506035404 | 61 | 260 | 0.0 | 3.0 | 0.00 | 0.00 | 0.00 | 64 | 1011.5 |
| 20260506034504 | 62 | 227 | 1.0 | 6.0 | 0.00 | 0.00 | 0.00 | 64 | 1011.5 |
| 20260506033603 | 62 | 299 | 1.0 | 6.0 | 0.00 | 0.00 | 0.00 | 64 | 1011.5 |
| 20260506032704 | 62 | 277 | 1.0 | 4.0 | 0.00 | 0.00 | 0.00 | 63 | 1011.5 |
| 20260506031824 | 62 | 284 | 1.0 | 4.0 | 0.00 | 0.00 | 0.00 | 64 | 1011.5 |
| 20260506030904 | 62 | 31 | 0.0 | 3.0 | 0.00 | 0.00 | 0.00 | 63 | 1011.9 |
| 20260506030025 | 62 | 323 | 1.0 | 2.0 | 0.00 | 0.00 | 0.00 | 63 | 1011.5 |
| 20260506025403 | 62 | 37 | 1.0 | 6.0 | 0.00 | 0.00 | 0.00 | 62 | 1011.5 |
| 20260506024503 | 62 | 239 | 0.0 | 1.0 | 0.00 | 0.00 | 0.00 | 61 | 1011.5 |
| 20260506023604 | 63 | 230 | 0.0 | 1.0 | 0.00 | 0.00 | 0.00 | 60 | 1011.2 |
| 20260506022704 | 63 | 284 | 0.0 | 2.0 | 0.00 | 0.00 | 0.00 | 60 | 1011.5 |
| 20260506021824 | 63 | 271 | 0.0 | 3.0 | 0.00 | 0.00 | 0.00 | 60 | 1011.2 |
| 20260506020903 | 63 | 266 | 1.0 | 2.0 | 0.00 | 0.00 | 0.00 | 60 | 1011.5 |
| 20260506020004 | 63 | 221 | 0.0 | 1.0 | 0.00 | 0.00 | 0.00 | 61 | 1011.5 |
| 20260506015404 | 63 | 213 | 0.0 | 2.0 | 0.00 | 0.00 | 0.00 | 61 | 1011.5 |
| 20260506014504 | 63 | 267 | 0.0 | 2.0 | 0.00 | 0.00 | 0.00 | 61 | 1011.2 |
| 20260506013603 | 63 | 294 | 0.0 | 1.0 | 0.00 | 0.00 | 0.00 | 60 | 1011.5 |
| 20260506012704 | 63 | 294 | 0.0 | 1.0 | 0.00 | 0.00 | 0.00 | 59 | 1011.2 |
| 20260506011803 | 64 | 294 | 0.0 | 1.0 | 0.00 | 0.00 | 0.00 | 58 | 1011.2 |
| 20260506010903 | 64 | 297 | 0.0 | 1.0 | 0.00 | 0.00 | 0.00 | 58 | 1011.2 |
| 20260506010024 | 64 | 290 | 1.0 | 2.0 | 0.00 | 0.00 | 0.00 | 58 | 1010.8 |
| 20260506005403 | 64 | 275 | 0.0 | 2.0 | 0.00 | 0.00 | 0.00 | 57 | 1010.8 |
| 20260506004504 | 65 | 277 | 0.0 | 2.0 | 0.00 | 0.00 | 0.00 | 57 | 1010.8 |
| 20260506003603 | 65 | 274 | 0.0 | 1.0 | 0.00 | 0.00 | 0.00 | 57 | 1010.5 |
| 20260506002703 | 65 | 195 | 1.0 | 4.0 | 0.00 | 0.00 | 0.00 | 56 | 1010.5 |
| 20260506001803 | 65 | 207 | 0.0 | 2.0 | 0.00 | 0.00 | 0.00 | 56 | 1010.5 |
| 20260506000903 | 66 | 223 | 1.0 | 4.0 | 0.00 | 0.00 | 0.00 | 55 | 1010.1 |
| 20260506000024 | 66 | 284 | 1.0 | 4.0 | 0.00 | 0.00 | 0.00 | 54 | 1010.1 |
| 20260505235403 | 67 | 234 | 1.0 | 6.0 | 0.00 | 0.00 | 0.00 | 54 | 1010.1 |
| 20260505234503 | 67 | 221 | 1.0 | 7.0 | 0.00 | 0.00 | 0.00 | 53 | 1009.8 |
| 20260505233604 | 68 | 218 | 1.0 | 6.0 | 0.00 | 0.00 | 0.00 | 52 | 1009.8 |
| 20260505232703 | 69 | 163 | 1.0 | 7.0 | 0.00 | 0.00 | 0.00 | 51 | 1009.4 |
| 20260505231825 | 69 | 276 | 1.0 | 3.0 | 0.00 | 0.00 | 0.00 | 50 | 1009.4 |
| 20260505230903 | 70 | 193 | 1.0 | 3.0 | 0.00 | 0.00 | 0.00 | 49 | 1009.4 |
| 20260505230003 | 71 | 217 | 1.0 | 3.0 | 0.00 | 0.00 | 0.00 | 48 | 1009.4 |
| 20260505225424 | 72 | 229 | 1.0 | 4.0 | 0.00 | 0.00 | 0.00 | 47 | 1009.4 |
| 20260505224503 | 72 | 253 | 1.0 | 4.0 | 0.00 | 0.00 | 0.00 | 46 | 1009.4 |
| 20260505223603 | 73 | 211 | 2.0 | 8.0 | 0.00 | 0.00 | 0.00 | 45 | 1009.1 |
| 20260505222703 | 74 | 243 | 1.0 | 9.0 | 0.00 | 0.00 | 0.00 | 44 | 1009.1 |
| 20260505221824 | 74 | 173 | 2.0 | 9.0 | 0.00 | 0.00 | 0.00 | 44 | 1008.7 |
| 20260505220924 | 74 | 159 | 3.0 | 13.0 | 0.00 | 0.00 | 0.00 | 44 | 1008.7 |
| 20260505220024 | 74 | 191 | 2.0 | 10.0 | 0.00 | 0.00 | 0.00 | 44 | 1008.7 |
| 20260505215403 | 74 | 193 | 2.0 | 9.0 | 0.00 | 0.00 | 0.00 | 43 | 1008.7 |
| 20260505214503 | 75 | 154 | 2.0 | 11.0 | 0.00 | 0.00 | 0.00 | 43 | 1009.1 |
| 20260505213603 | 75 | 169 | 2.0 | 11.0 | 0.00 | 0.00 | 0.00 | 43 | 1009.1 |
| 20260505212703 | 76 | 171 | 2.0 | 8.0 | 0.00 | 0.00 | 0.00 | 43 | 1009.1 |
| 20260505211803 | 76 | 183 | 2.0 | 6.0 | 0.00 | 0.00 | 0.00 | 43 | 1008.7 |
| 20260505210903 | 76 | 182 | 2.0 | 8.0 | 0.00 | 0.00 | 0.00 | 43 | 1009.1 |
| 20260505210003 | 76 | 201 | 3.0 | 14.0 | 0.00 | 0.00 | 0.00 | 41 | 1008.7 |
| 20260505205403 | 76 | 185 | 3.0 | 16.0 | 0.00 | 0.00 | 0.00 | 41 | 1008.7 |